Wind_Speed
15 15 14 13 13 14 14 15 16 16 16 17 17 17 17 17 17 16 16 17 17 17 18 17 16 15 15 14 13 12 11 10 9 9 8 8 6 6 6 6 6 6 6 5 5 5 5 5 5 5 5 5 5 5 4 4 4 4 4 5 4 4 4
13 13 13 13 13 14 16 17 17 17 17 18 17 18 18 18 18 18 17 18 18 18 18 18 17 16 15 15 14 13 13 12 10 9 9 8 7 7 7 6 6 5 5 5 4 4 4 5 5 5 6 6 6 5 5 4 5 5 5 5 5 5 5
12 12 12 13 13 14 16 17 17 17 18 17 17 18 18 19 19 19 18 18 19 18 18 18 18 17 16 15 15 14 14 13 12 11 10 9 9 8 8 7 6 6 6 6 6 5 5 5 5 6 6 6 6 6 5 5 5 6 6 5 5 5 5
15 14 13 13 13 13 15 17 17 17 17 17 18 18 19 20 20 19 19 19 19 19 18 18 18 17 16 16 15 14 14 14 13 12 11 10 9 8 8 7 7 7 6 6 7 6 5 5 6 6 7 7 6 6 6 6 6 6 6 6 6 5 6
18 16 14 12 11 11 12 15 17 17 17 17 18 18 19 20 19 18 19 19 19 20 19 18 17 17 16 16 15 14 14 15 14 13 11 10 9 8 8 8 8 8 7 7 7 7 6 6 7 7 8 8 8 7 7 7 7 7 7 7 7 6 6
16 15 13 12 11 11 12 15 17 17 18 18 18 18 18 18 18 18 19 19 19 19 19 18 17 17 17 16 15 14 14 14 14 13 12 11 10 9 9 9 9 9 9 8 8 8 8 8 8 8 9 9 9 8 8 8 8 7 8 8 7 6 6
13 13 13 13 13 12 13 15 16 17 18 17 17 17 18 18 18 18 18 18 19 18 18 19 18 17 17 16 15 14 13 14 14 14 13 12 12 11 10 9 9 9 9 9 9 8 9 9 9 9 9 9 9 8 8 8 7 7 8 8 8 7 7
13 13 12 13 13 13 13 15 17 18 18 17 16 16 17 17 17 18 18 17 18 18 18 18 17 17 16 15 15 15 15 14 14 14 14 14 13 12 11 11 10 10 9 9 9 9 9 10 10 9 9 9 8 8 8 7 7 8 8 8 8 8 8
12 12 11 12 12 12 12 14 15 17 17 16 16 16 16 16 16 16 17 17 17 18 18 17 16 16 16 15 15 16 15 15 14 14 15 15 14 13 13 12 12 11 11 10 10 10 10 10 10 10 9 9 8 8 8 8 8 8 8 7 7 7 7
10 11 12 11 9 8 9 9 9 11 14 15 14 14 15 15 15 15 16 16 17 18 18 16 16 16 16 16 16 15 15 15 15 15 15 16 15 14 14 13 13 12 12 11 10 10 10 10 10 10 10 9 9 9 8 8 8 9 8 8 8 8 8
7 9 11 10 8 7 9 10 8 8 9 12 12 12 13 14 14 14 15 16 16 16 16 16 15 16 16 15 15 15 15 15 15 15 15 16 16 15 15 14 13 12 12 12 12 10 10 10 10 10 10 10 10 10 10 9 9 9 9 9 8 8 8
7 8 9 10 9 8 8 9 10 10 10 11 12 13 13 13 14 14 15 16 16 15 16 17 16 16 15 15 15 15 15 14 14 14 15 15 15 15 14 14 14 13 13 13 13 12 11 11 11 11 11 11 10 10 10 10 10 10 9 9 9 9 9
8 8 8 9 9 9 9 9 10 12 11 11 13 14 12 11 14 14 14 16 16 15 16 17 17 16 16 15 15 15 15 14 14 13 13 14 14 13 13 14 14 14 13 13 13 13 12 12 12 11 11 11 11 11 11 10 10 10 10 10 9 9 9
8 9 9 9 10 11 11 11 10 12 11 10 12 12 10 9 11 12 12 13 14 15 16 16 17 17 16 16 16 16 16 15 14 13 12 12 12 12 12 12 13 13 13 13 13 14 13 13 12 12 12 12 12 11 11 11 11 11 10 10 10 9 10
9 9 9 10 10 10 11 11 10 11 12 11 10 10 11 11 11 10 10 10 12 14 14 14 16 17 17 17 16 15 15 14 13 12 12 12 11 11 11 12 12 12 12 12 12 13 13 12 12 11 11 11 11 11 11 11 11 11 11 10 9 9 9
9 9 9 8 7 7 8 8 9 11 12 12 11 12 13 13 13 12 11 11 13 13 13 13 15 16 16 16 15 14 13 13 12 11 10 11 11 11 11 11 12 12 11 11 11 11 11 11 11 10 10 10 10 11 11 11 11 12 12 11 9 9 9
10 9 8 8 7 7 7 7 8 9 9 8 8 9 9 9 11 13 12 13 14 13 13 14 15 15 15 14 14 13 13 12 11 11 10 10 10 10 10 10 9 10 10 10 10 10 9 10 10 10 11 10 10 11 11 11 10 11 12 12 11 10 9
9 9 8 8 8 8 8 8 9 10 9 8 7 6 5 6 7 10 11 12 13 13 14 16 16 15 13 13 13 13 13 12 12 12 11 10 10 10 9 8 7 7 7 8 9 9 9 9 9 10 10 9 10 10 9 8 10 12 12 12 12 11 11
9 9 9 8 9 9 10 10 11 11 10 9 7 6 5 5 7 9 10 12 12 12 14 16 16 15 14 13 14 14 13 13 13 13 13 12 10 8 7 7 6 6 6 6 6 7 8 9 9 9 9 9 9 7 5 7 11 12 12 12 12 11 11
9 9 8 8 9 10 10 12 12 12 12 11 10 8 7 6 8 8 7 7 8 10 15 17 15 15 15 15 15 15 13 12 12 13 14 13 11 9 9 9 8 8 9 9 8 6 8 10 10 9 9 8 7 5 5 9 10 9 10 10 10 10 10
9 9 8 9 10 10 11 13 13 13 13 12 10 10 9 7 7 6 5 4 5 7 11 14 13 13 14 14 14 13 12 12 12 13 14 13 12 12 13 13 13 12 13 15 15 12 10 10 10 9 8 7 6 4 3 6 8 7 8 9 9 9 9
10 9 8 10 11 12 13 14 13 13 12 10 9 9 10 9 8 8 9 9 8 8 8 10 11 11 11 11 12 11 11 11 11 12 12 12 12 13 15 16 16 16 15 15 14 12 10 9 9 8 6 5 6 5 2 2 5 6 6 7 7 8 7
11 10 9 11 13 14 14 14 13 13 12 11 9 9 10 10 10 11 13 13 11 11 10 11 11 11 11 10 10 11 12 11 12 12 12 12 12 13 14 14 14 14 14 14 12 11 10 9 8 8 8 7 7 6 3 1 4 4 5 6 6 6 7
12 11 10 12 13 14 15 14 13 13 13 13 11 9 9 11 12 13 15 15 14 14 14 15 16 15 15 15 15 15 16 15 15 15 14 13 13 13 13 13 13 14 14 15 15 14 14 13 11 9 9 8 7 6 5 3 1 2 3 5 6 7 6
13 13 12 13 14 15 15 15 14 14 13 13 12 11 11 12 13 14 15 16 16 17 16 16 17 16 16 16 16 17 16 16 16 16 16 14 14 14 14 14 14 15 15 15 16 16 15 14 13 13 12 10 9 8 8 7 6 3 2 1 3 5 3
13 14 13 13 15 16 16 17 16 15 14 13 12 12 12 13 13 13 14 15 17 18 16 15 15 15 15 14 15 15 15 15 15 15 17 18 17 16 15 16 16 16 16 16 16 16 16 14 14 15 13 9 8 9 9 9 9 7 6 5 3 2 2
12 13 13 13 14 15 16 15 15 16 15 13 12 11 12 13 14 13 12 14 16 17 16 15 14 15 15 15 16 15 15 16 15 15 16 16 15 14 15 16 16 16 16 16 16 15 15 14 13 14 13 10 8 9 9 9 9 9 8 8 7 5 4
11 11 13 14 13 13 14 14 14 15 14 13 12 11 11 13 14 12 12 13 14 15 15 14 14 15 16 17 16 15 16 17 18 16 15 14 14 14 16 15 15 15 15 15 15 14 13 12 12 12 11 10 9 10 12 11 10 10 10 10 9 8 7
13 12 14 14 13 12 13 14 14 14 12 11 11 11 11 13 13 12 13 13 12 13 14 13 14 16 17 17 16 15 16 17 18 16 14 14 15 15 14 14 14 14 14 13 14 15 14 12 11 11 11 10 10 11 13 14 12 12 13 13 12 11 10
12 13 13 13 12 11 12 12 12 12 11 10 10 10 11 12 12 13 13 12 11 13 15 15 16 17 18 17 16 16 16 17 17 16 14 14 15 14 13 13 12 11 11 11 12 14 14 12 11 11 11 10 10 10 11 13 13 13 14 14 13 13 12
10 10 11 13 13 11 11 11 12 11 10 9 9 9 9 11 12 13 13 11 11 14 16 17 17 17 17 16 16 15 16 17 17 16 15 14 14 14 13 13 12 10 9 8 10 12 12 10 10 11 11 10 10 9 8 9 11 12 12 12 12 11 11
9 8 9 12 14 14 13 12 12 11 10 8 8 8 8 9 10 12 12 12 12 14 15 15 16 16 16 15 15 15 16 16 16 15 14 14 14 13 11 12 13 11 8 6 7 8 9 8 8 10 11 10 9 8 7 7 7 8 8 9 9 9 10
11 10 12 13 14 14 14 12 11 11 10 9 7 7 7 8 8 9 10 11 11 12 13 14 14 14 14 14 14 14 14 14 14 13 13 13 13 12 10 10 11 10 9 7 7 6 6 7 8 8 9 9 8 8 7 6 5 5 6 6 6 6 7
14 13 14 14 13 13 13 12 10 10 10 9 7 6 7 7 7 7 7 7 8 10 12 12 12 13 13 13 13 12 12 13 13 13 12 11 11 10 10 9 9 9 9 8 7 6 6 6 7 7 7 7 7 6 5 5 5 6 6 7 7 6 6
16 15 15 15 14 13 12 11 10 10 10 9 8 7 7 7 6 6 6 6 6 8 10 11 11 11 12 12 11 11 12 12 11 11 11 12 12 12 11 10 9 10 11 9 8 8 7 7 6 6 5 5 4 4 3 3 4 5 6 7 7 8 8
19 19 17 16 15 13 12 10 10 9 9 8 8 7 7 7 6 6 5 5 6 7 9 10 11 10 11 10 11 11 11 10 10 10 11 12 12 13 13 12 11 11 11 10 9 7 7 7 8 8 7 7 6 5 4 5 5 5 6 6 7 8 9
18 19 18 16 15 12 10 9 8 8 8 7 6 6 7 7 7 6 5 5 6 7 8 10 10 10 10 9 9 9 10 10 10 10 10 11 12 12 13 13 12 11 10 8 7 6 6 7 7 8 8 9 8 6 5 6 6 5 4 5 5 7 8
19 17 17 16 15 13 10 8 6 5 5 5 5 5 5 6 6 6 5 5 5 6 8 9 9 9 9 9 9 9 9 10 10 10 10 11 11 11 11 11 11 11 10 8 7 6 6 7 7 7 7 8 8 6 5 4 4 4 3 3 4 5 7
Wind_Direction
187 186 187 189 189 191 192 190 191 189 187 189 190 190 190 188 185 182 182 186 189 190 191 194 196 194 192 192 192 194 195 195 194 194 195 198 203 207 207 210 212 216 216 211 207 205 204 206 204 204 202 201 203 201 203 210 206 204 205 204 206 212 220
184 184 186 188 190 192 191 191 194 194 193 193 192 191 190 186 185 184 182 185 190 193 192 194 197 197 196 194 194 195 197 198 197 195 195 195 199 204 208 212 215 219 224 219 209 202 202 205 207 209 208 205 203 203 208 212 209 208 208 209 213 217 223
184 183 187 190 191 194 194 193 196 198 198 197 194 191 189 186 186 186 183 184 190 194 195 195 196 198 198 196 196 196 197 199 199 198 198 197 199 202 204 210 216 218 218 215 208 203 201 201 204 208 205 204 204 206 210 210 208 211 210 211 219 223 226
191 188 188 190 192 196 195 194 196 199 199 199 196 192 188 187 187 187 185 185 190 194 197 197 197 200 200 199 199 199 199 201 201 202 203 202 200 203 203 202 207 213 212 207 205 203 202 198 198 201 200 204 207 207 210 210 205 207 210 215 223 226 229
192 189 184 182 188 196 194 194 196 197 198 197 195 193 189 188 188 189 188 188 191 195 197 198 199 199 201 202 202 201 201 202 203 204 205 205 202 202 203 201 201 205 205 205 205 205 205 202 197 197 198 202 210 210 208 208 206 207 208 214 222 228 231
185 182 177 172 184 196 192 194 197 197 198 197 194 193 190 190 191 192 192 191 193 195 197 199 200 199 201 203 204 203 201 201 203 205 205 205 204 203 204 204 203 202 202 204 207 205 205 206 202 198 198 202 208 210 207 206 208 207 207 212 217 225 231
174 174 174 173 183 192 190 193 198 200 200 197 193 193 192 194 195 195 194 193 193 194 196 199 199 199 201 203 204 203 202 202 203 205 207 205 205 207 207 204 204 205 203 203 205 204 200 201 203 202 204 206 207 208 205 203 209 209 207 212 214 220 227
176 176 177 177 180 186 188 194 199 200 200 197 192 192 195 196 197 197 195 191 190 192 196 199 198 197 199 201 203 204 204 205 204 204 208 208 206 208 207 204 202 202 204 204 203 202 199 198 200 202 205 209 207 208 205 202 209 214 212 214 216 220 225
176 176 175 174 174 178 181 188 197 198 196 194 191 190 193 194 196 197 194 189 186 189 193 196 195 193 194 197 200 203 204 205 206 205 207 208 209 209 207 204 202 202 206 208 204 202 203 202 199 198 202 208 205 204 207 205 210 216 215 217 220 226 232
170 174 176 167 156 154 147 151 182 196 190 189 191 190 191 192 192 193 191 188 187 189 191 191 190 189 189 193 196 200 203 205 207 208 207 208 209 211 210 206 202 203 206 211 210 205 205 206 203 198 198 205 205 204 208 209 210 214 215 219 223 228 235
172 178 181 167 148 143 138 141 163 184 185 184 183 186 190 191 191 190 189 190 189 189 188 187 186 185 186 189 191 196 201 202 206 209 209 210 209 210 213 212 209 206 207 211 212 207 205 207 206 203 202 206 208 207 209 210 212 216 219 220 221 223 227
177 185 188 180 167 160 157 162 171 178 190 189 178 180 185 186 189 191 191 193 193 190 186 185 185 185 185 188 189 194 200 202 205 208 209 211 212 212 213 215 216 214 213 213 213 210 207 206 206 207 208 210 211 210 211 213 216 219 222 224 222 221 224
173 182 187 189 187 180 174 176 176 177 186 189 185 188 188 185 189 193 194 197 196 193 188 185 184 184 186 190 191 191 195 200 203 206 209 210 213 214 214 215 217 219 219 218 216 214 213 211 209 208 210 213 215 215 215 216 218 219 223 226 225 222 225
180 183 182 186 191 192 190 190 186 182 183 184 188 195 199 196 190 191 197 199 197 194 190 187 187 186 188 192 194 191 191 196 202 206 211 211 212 216 217 217 218 220 222 222 220 220 220 219 216 213 214 217 219 222 220 218 220 221 221 226 228 227 227
187 183 180 184 187 190 194 192 186 186 189 188 189 194 203 206 196 189 193 197 200 199 192 189 190 188 188 191 194 193 189 189 193 198 206 209 211 214 217 219 220 220 221 223 225 226 227 228 227 222 221 222 223 228 229 225 223 222 220 222 225 230 232
182 177 173 173 169 171 182 183 178 185 190 191 194 197 202 207 205 199 194 197 205 203 194 195 196 192 191 193 195 194 187 182 181 181 189 201 206 210 214 218 219 220 220 221 226 231 230 230 232 230 228 227 227 230 232 233 230 223 221 224 225 230 236
172 165 157 147 138 144 154 153 156 166 170 170 178 186 187 191 200 202 200 203 209 205 200 206 205 197 194 195 193 188 181 179 179 175 178 190 196 201 208 213 216 220 220 221 224 227 228 229 232 235 234 232 231 231 232 234 230 221 225 237 243 241 242
157 146 143 141 136 134 133 127 129 133 129 121 120 128 138 153 177 191 196 202 205 200 201 210 212 206 202 200 197 192 186 186 191 190 192 197 196 195 201 205 209 215 219 224 225 222 224 230 231 233 234 233 234 236 232 226 226 229 238 250 255 250 247
154 146 146 144 133 128 127 125 126 127 124 122 124 133 150 170 185 193 200 204 200 195 201 209 212 209 206 203 199 196 190 188 193 196 199 202 199 195 194 189 191 203 210 217 227 228 227 226 224 226 230 232 233 232 225 227 233 241 247 250 251 249 245
154 143 144 137 126 123 122 121 122 121 119 122 128 136 150 170 185 190 198 203 198 199 207 211 210 207 205 203 201 197 193 190 193 197 198 198 195 189 181 175 180 193 195 189 191 210 225 223 219 219 221 221 215 203 219 234 237 242 244 243 245 245 241
136 132 143 139 127 123 123 122 123 122 120 122 124 125 126 132 143 142 128 134 148 170 196 203 203 201 201 200 198 194 191 193 196 199 198 193 184 180 181 181 182 185 188 191 190 194 207 214 212 212 214 209 192 169 201 234 230 233 239 239 245 246 245
129 129 138 134 130 130 129 126 123 123 123 123 119 112 107 108 112 108 103 107 114 123 149 169 176 184 188 190 189 184 182 185 186 189 192 186 173 169 174 181 185 186 191 195 190 183 188 195 196 198 201 194 176 152 120 224 224 231 238 238 244 248 249
130 132 132 133 135 133 130 127 125 125 125 122 117 106 101 106 111 108 105 105 109 116 125 130 133 141 148 152 159 162 158 154 153 155 162 162 153 149 155 162 171 181 188 182 165 156 162 165 165 177 178 166 156 143 113 161 226 240 247 247 247 245 248
126 133 136 136 134 129 128 128 127 128 127 122 116 110 108 112 114 113 111 109 110 111 110 110 112 113 115 117 122 129 131 127 128 133 137 139 138 138 144 150 154 164 171 163 148 142 144 143 138 136 133 123 120 117 104 100 129 244 253 253 244 234 244
123 131 138 138 133 127 126 127 126 125 123 119 115 115 118 116 113 112 110 109 111 109 103 102 106 105 104 106 109 113 117 118 123 128 128 128 130 132 139 147 149 150 150 144 138 134 134 135 130 115 103 99 99 93 87 87 82 62 36 307 232 215 228
128 134 139 136 129 125 125 127 128 124 119 115 114 118 120 116 110 106 103 106 111 108 100 98 101 102 104 106 103 103 106 109 112 116 118 122 126 128 135 139 137 135 133 127 124 124 124 125 121 112 106 104 100 88 82 84 80 65 56 56 63 135 126
131 136 136 127 125 128 128 128 127 122 119 118 118 120 118 112 105 100 99 102 105 106 105 103 100 97 98 99 97 97 98 99 100 101 106 114 118 120 124 128 127 126 124 119 116 116 115 115 115 112 108 100 93 90 88 86 80 70 63 62 62 69 79
117 124 129 126 128 130 126 124 123 120 121 124 124 123 117 108 103 101 100 97 97 104 110 110 105 100 97 96 96 96 98 102 104 103 103 108 113 113 115 118 120 121 121 119 119 115 104 99 102 105 101 91 85 88 88 82 77 73 68 63 61 62 64
118 126 132 131 134 132 126 125 124 121 121 122 120 122 120 112 106 105 101 96 99 111 117 113 109 107 104 103 102 101 102 103 102 101 104 109 112 109 108 109 112 116 118 118 120 115 105 98 98 98 93 86 83 85 86 82 79 77 73 68 65 63 63
129 140 142 135 133 132 128 126 122 118 119 119 115 116 118 116 113 110 106 101 105 115 119 117 114 110 107 107 106 104 103 101 100 100 102 105 107 103 101 102 104 109 113 115 116 114 111 112 112 106 99 94 90 85 82 82 82 79 75 71 67 64 63
133 142 137 126 124 126 126 122 118 117 120 119 118 119 120 120 120 117 115 115 116 119 120 120 118 114 113 114 112 109 108 106 108 110 108 105 104 100 98 102 104 101 105 115 119 119 121 129 129 119 112 108 102 92 84 81 81 79 77 74 68 63 61
124 119 107 105 108 110 112 111 110 113 113 108 109 117 121 123 124 121 123 128 130 130 130 127 123 121 121 121 119 118 117 114 114 114 110 106 104 101 101 108 108 102 98 103 110 116 126 136 137 132 131 129 125 120 113 102 93 84 76 70 63 55 53
86 93 95 95 95 99 103 104 104 105 102 93 90 99 108 118 121 122 129 138 142 143 142 138 132 128 127 127 126 125 124 121 119 117 113 109 108 106 105 107 107 102 98 98 100 109 125 133 134 137 141 139 136 136 131 119 104 87 69 62 58 46 40
79 81 87 90 89 90 93 96 98 97 93 88 83 83 91 101 108 116 128 137 144 151 151 147 142 139 136 133 131 129 127 124 122 120 115 108 103 99 96 94 92 91 95 104 109 111 119 124 123 125 130 131 132 138 139 120 93 76 66 62 59 50 41
94 84 77 78 79 78 80 83 85 84 83 83 82 83 87 91 100 114 122 125 139 153 156 154 154 150 145 140 137 135 133 130 127 125 116 106 99 95 93 94 91 87 91 103 114 118 119 115 107 101 99 99 104 122 135 119 92 79 73 64 57 55 52
104 99 90 81 73 69 69 73 76 78 77 75 76 83 90 94 102 110 112 118 135 148 153 156 157 155 151 149 147 147 146 140 134 130 124 115 107 100 96 97 99 96 95 99 105 113 118 114 111 109 101 91 90 99 112 113 104 93 81 67 54 50 46
110 105 101 94 86 79 75 71 72 77 78 76 77 85 93 98 103 106 105 114 129 140 150 155 156 157 159 154 145 144 146 141 138 138 135 128 122 114 104 98 97 98 100 101 102 103 103 102 106 112 111 107 101 92 90 97 98 90 78 64 50 42 35
117 110 106 103 98 95 92 85 80 80 82 86 92 96 100 104 105 102 103 112 123 135 148 155 157 156 154 144 132 133 137 134 134 139 139 137 138 135 128 119 110 105 104 103 102 101 99 99 101 104 111 120 123 114 103 101 99 93 84 66 48 35 25
Height
796 798 800 802 804 806 808 811 815 817 820 822 824 827 829 832 834 836 838 841 844 846 848 851 852 854 856 857 859 860 862 864 865 866 867 868 869 870 871 871 872 873 873 874 875 875 876 877 878 879 879 880 881 881 882 882 882 883 883 883 884 884 885
795 798 799 801 803 804 806 810 813 815 818 820 822 824 827 829 832 834 837 839 842 845 847 849 851 853 855 856 858 859 861 863 864 865 866 867 868 869 870 871 872 872 873 874 874 875 876 877 877 878 879 880 880 881 881 882 882 882 883 883 884 884 884
797 799 799 800 801 802 804 807 811 813 815 818 820 822 825 827 830 832 835 838 840 843 846 848 850 852 853 855 857 858 860 862 863 864 865 866 868 869 870 871 871 872 873 873 874 875 876 876 877 878 878 879 880 880 881 881 882 882 882 883 883 884 884
795 796 797 799 799 801 803 806 809 811 813 816 818 821 823 825 828 831 833 836 839 842 844 846 848 850 852 854 855 857 859 860 862 863 864 865 867 868 869 870 871 871 872 873 874 874 875 876 876 877 877 878 879 879 880 880 881 881 882 882 883 883 883
791 792 795 799 800 802 802 804 807 809 811 814 816 819 821 824 827 829 832 834 837 840 842 844 847 848 851 852 854 856 857 859 861 862 863 864 866 867 868 869 870 871 872 872 873 874 874 875 875 876 876 877 878 878 879 879 880 880 881 881 882 882 883
788 790 794 797 801 802 801 803 805 807 810 812 814 817 820 823 825 827 830 832 835 838 840 843 845 846 849 851 852 854 856 858 859 861 862 864 865 866 867 868 869 870 871 871 872 873 873 874 874 875 876 876 877 877 878 879 879 880 880 880 881 881 882
786 790 792 794 797 799 800 802 804 806 808 810 813 816 818 820 823 825 828 831 833 836 838 840 842 845 847 849 851 853 854 856 858 860 861 862 864 865 866 867 868 869 869 870 871 871 872 873 874 874 875 875 876 877 877 878 879 879 879 880 880 880 881
786 789 791 792 794 796 797 800 803 804 807 809 812 815 817 819 821 823 826 829 832 834 836 838 840 843 845 847 849 851 853 855 856 858 859 861 862 863 864 866 866 867 868 869 870 870 871 872 872 873 874 875 875 876 877 877 878 878 879 879 879 879 880
785 788 791 792 792 794 796 799 802 803 806 808 811 813 815 818 820 822 825 828 830 832 834 836 839 841 843 845 847 849 851 853 854 856 857 859 860 861 862 863 864 866 867 867 868 869 870 870 871 872 873 874 875 875 876 876 877 877 878 878 879 879 879
787 789 792 792 793 795 797 800 803 805 806 808 810 812 814 816 818 821 824 826 828 830 832 835 837 839 841 843 845 847 849 851 852 854 855 856 857 859 860 861 862 864 865 866 866 867 868 869 870 871 872 873 873 874 875 875 875 876 876 877 877 878 878
789 791 792 793 795 797 799 800 803 807 808 809 810 811 813 815 818 820 822 825 827 829 831 833 836 837 839 841 843 845 847 848 850 852 853 854 855 856 858 859 860 861 863 864 865 866 867 868 869 870 871 871 872 873 873 874 874 875 875 875 876 876 877
793 792 794 794 796 798 800 801 803 807 810 810 810 810 812 814 817 819 821 824 825 828 830 832 834 836 838 840 841 843 845 846 848 850 851 852 853 854 856 857 859 860 861 862 863 864 865 866 868 869 869 870 871 871 872 872 873 874 874 874 875 875 875
794 794 795 795 796 798 800 802 803 806 809 810 809 810 812 814 816 818 820 822 824 826 828 830 832 833 836 838 839 841 843 845 846 848 849 851 852 853 854 855 857 858 859 861 862 863 864 865 866 867 868 869 870 870 871 871 872 873 873 873 873 874 874
795 795 796 796 797 798 799 802 803 804 807 808 809 811 813 815 816 817 819 821 823 825 826 828 830 831 833 835 837 838 840 842 845 846 848 850 851 852 853 854 856 857 858 860 861 862 862 863 864 865 866 867 868 869 870 870 871 871 872 872 872 872 873
796 795 796 797 798 798 799 800 802 804 806 808 809 811 813 815 816 816 818 821 823 824 825 827 828 829 831 832 834 836 838 840 842 844 847 848 850 851 852 853 854 856 857 859 860 861 862 862 863 864 865 866 867 868 868 869 869 870 870 870 871 871 871
797 796 797 797 798 799 800 801 802 804 806 807 809 810 812 814 815 816 818 820 822 823 824 826 827 828 829 831 833 835 836 838 840 842 844 846 848 850 851 852 853 854 856 858 859 860 861 862 863 863 864 865 866 867 867 868 868 868 869 869 870 870 870
795 796 798 798 800 801 801 802 803 805 807 808 810 810 812 814 814 816 818 820 821 822 823 825 826 827 829 830 831 833 835 837 839 840 842 844 846 847 849 850 852 853 855 856 858 859 860 861 862 863 863 864 864 865 866 866 866 866 867 868 869 869 869
793 796 799 801 802 803 804 805 806 807 809 810 811 812 813 814 815 816 817 818 820 821 822 824 825 827 828 829 831 832 833 835 837 839 841 842 844 846 847 849 851 852 853 855 856 858 859 860 861 862 862 862 863 863 864 863 863 864 866 867 867 867 868
793 796 799 801 803 804 805 806 807 809 810 811 812 813 814 815 815 816 816 817 819 820 822 823 824 826 827 828 830 831 832 834 836 837 839 841 843 845 846 848 850 851 852 854 855 856 857 858 859 860 861 861 862 862 862 862 862 863 864 865 865 866 866
792 795 799 802 803 805 806 807 808 810 811 812 813 814 815 815 815 816 816 817 818 819 821 822 823 824 826 827 829 830 831 833 834 836 838 839 841 843 844 846 847 849 850 851 852 854 856 857 858 858 860 860 861 861 861 861 861 862 862 863 863 864 864
792 797 801 803 805 806 808 808 810 811 811 813 814 814 815 815 815 816 816 816 817 819 820 821 822 823 824 825 827 828 829 831 833 835 837 838 840 841 841 843 844 846 849 848 847 849 852 854 856 857 858 859 860 860 860 860 860 861 861 861 862 862 862
794 798 801 803 806 808 809 809 810 811 812 814 814 815 815 815 816 816 816 817 818 819 820 821 822 823 823 824 826 827 828 830 832 834 836 838 839 840 840 841 842 844 848 848 846 846 849 852 854 855 857 858 859 860 860 859 859 859 859 860 860 860 861
795 800 803 804 806 808 809 810 811 812 813 814 815 816 816 816 817 817 817 819 819 820 821 822 823 825 825 825 826 827 828 829 831 833 836 838 839 840 841 842 842 845 848 848 846 846 848 851 853 855 856 857 858 859 859 858 858 858 858 859 859 859 860
797 802 805 806 807 808 810 811 812 813 814 815 817 818 818 818 819 819 819 820 821 822 823 823 825 827 826 826 826 827 828 829 831 833 835 837 838 839 840 842 844 847 848 847 846 846 848 850 852 854 855 857 858 859 859 858 858 858 858 858 858 858 859
800 804 807 807 808 809 811 813 814 815 816 817 819 819 820 820 820 820 821 821 822 824 825 825 826 827 827 827 828 828 829 830 831 832 835 837 838 839 840 843 845 847 848 847 846 847 849 851 852 854 856 858 860 860 860 859 858 858 857 857 857 858 858
803 806 808 808 810 812 813 815 816 817 818 820 821 822 822 822 822 822 822 823 824 825 826 827 828 828 828 829 829 830 831 832 834 834 835 838 840 841 843 845 845 846 848 848 848 848 850 852 854 855 857 859 860 861 860 859 859 859 858 858 857 857 858
805 807 808 811 814 815 816 818 818 819 821 823 824 824 824 824 824 824 824 825 826 827 828 830 830 830 830 830 831 834 835 835 837 838 839 841 842 844 846 847 846 847 848 849 850 851 852 854 855 856 858 860 860 861 861 860 860 860 859 859 858 858 858
807 809 812 815 818 819 819 821 821 822 824 825 826 827 827 826 826 827 827 827 828 829 830 831 832 831 831 832 835 838 838 838 840 841 843 845 846 846 847 847 848 848 849 851 852 853 854 856 857 858 859 860 861 861 861 862 862 861 861 860 859 859 859
812 814 816 818 821 822 822 823 825 825 826 827 828 829 829 829 829 829 829 830 830 831 832 832 833 833 834 836 839 841 841 841 842 844 846 847 848 848 848 849 850 851 852 854 854 855 856 858 859 860 861 862 863 863 863 864 864 863 862 861 860 860 860
817 820 821 821 823 825 825 826 828 828 830 831 831 832 832 832 832 832 832 833 833 834 834 835 835 836 837 839 842 843 843 843 844 847 849 849 850 850 850 851 852 854 855 856 857 857 858 860 861 862 862 864 864 865 865 865 865 864 863 862 862 862 862
821 824 823 823 826 828 829 830 831 832 833 834 834 835 835 835 835 835 835 836 836 836 837 838 838 839 840 842 843 845 845 845 847 850 851 851 851 852 853 853 854 855 857 858 858 858 859 861 862 862 863 865 866 866 867 867 866 865 864 864 864 864 863
824 827 827 827 828 829 831 833 835 835 837 838 838 838 837 837 838 838 838 839 839 839 840 840 841 842 843 844 845 846 847 848 850 851 852 852 852 854 855 856 855 856 857 858 859 859 860 861 862 862 863 864 866 867 868 868 867 867 867 866 866 866 865
828 829 830 830 830 831 833 835 837 838 839 840 841 840 840 840 840 840 840 840 841 841 842 842 843 843 844 845 846 848 849 850 851 853 853 854 854 856 858 858 858 858 859 860 861 861 862 862 862 862 863 864 865 866 868 868 868 868 868 868 868 867 867
832 832 832 832 832 834 835 837 839 840 841 842 842 842 842 842 842 842 842 842 842 842 843 844 844 844 845 846 847 848 850 851 852 853 854 855 856 857 858 859 859 860 860 861 862 862 863 863 862 863 863 863 864 865 866 867 868 868 868 868 867 867 867
832 834 834 833 834 836 838 840 841 842 843 844 844 843 843 843 843 844 844 843 843 843 844 845 845 845 846 847 848 849 851 851 853 854 855 856 857 858 858 859 860 861 861 861 862 862 863 863 863 863 864 864 864 865 865 867 868 868 868 867 867 867 867
831 833 834 835 836 838 840 842 843 844 845 845 845 845 845 845 845 845 845 845 845 845 845 846 846 846 847 848 849 850 851 852 853 854 856 857 858 859 860 861 861 862 862 862 863 863 863 863 864 864 864 865 865 865 866 867 868 868 867 867 867 866 866
831 832 834 836 838 840 843 845 846 847 847 847 847 847 847 847 847 847 847 846 846 846 847 847 847 848 848 849 850 851 851 852 854 855 856 858 860 861 862 863 863 864 864 864 864 864 864 864 865 865 865 866 866 866 867 867 868 868 868 867 867 867 866
830 832 834 837 840 842 845 846 848 849 849 849 850 849 849 849 849 848 848 848 848 848 848 848 849 849 849 850 851 852 853 854 855 856 858 859 860 861 862 864 865 866 866 867 866 866 866 866 866 866 866 867 867 868 868 868 868 868 868 868 868 867 867